Regional Weather Roundup
Issued by NWS Jackson, KY

Home | Current Version | Previous Version | Graphics & Text | Print | Product List | Glossary On
Versions: 1 2 3 4 5 6 7 8 9 10 11 12 13 14 15 16 17 18 19 20 21 22 23 24 25 26 27 28 29 30 31 32 33 34 35 36 37 38 39 40 41 42 43 44 45 46 47 48 49 50
000
ASUS43 KJKL 182210
RWRJKL

EAST KENTUCKY HOURLY WEATHER ROUNDUP
NATIONAL WEATHER SERVICE JACKSON KY
500 PM EST THU JAN 18 2018

NOTE: "FAIR" INDICATES FEW OR NO CLOUDS BELOW 12,000 FEET WITH
NO SIGNIFICANT WEATHER AND/OR OBSTRUCTIONS TO VISIBILITY.

* THESE REPORTS ARE NOT UNDER NWS QUALITY CONTROL AND MAY NOT
  REPORT WEATHER SUCH AS PRECIPITATION AND FOG.

KYZ079-080-083-085-087-088-110-112-115-119-120-182300
...EASTERN KENTUCKY...

CITY           SKY/WX    TMP DP  RH WIND       PRES   REMARKS
JACKSON          N/A     29  12  49 VRB5      30.29S WCI  24
LONDON           N/A     31  12  45 SW6       30.32F WCI  25
SOMERSET*        N/A     30  12  47 W9        30.37F WCI  22
MONTICELLO*      N/A     30  16  56 W15       30.38F WCI  19
WILLIAMSBURG*    N/A     32  10  40 SW6       30.34F WCI  26
MIDDLESBORO*     N/A     31  15  52 S5        30.35F WCI  26
HARLAN APT*      N/A     32  14  47 CALM      30.30F
PIKE CO APT*     N/A     31  12  45 SW6       30.27S WCI  25
BIG SANDY APT*   N/A     31  13  46 SW6       30.28S WCI  25
MOREHEAD APT*    N/A     28   9  43 SW12G20   30.30F WCI  18
ASHLAND*         N/A     32  10  40 SW7       30.29  WCI  26
$$

KYZ035-036-041-042-044-050-067-078-099-182300
...CENTRAL KENTUCKY...

CITY           SKY/WX    TMP DP  RH WIND       PRES   REMARKS
MT STERLING*     N/A     28  14  54 SW9       30.31F WCI  20
FLEMING/MASON*   N/A     26  12  55 SW15      30.28S WCI  14
DANVILLE*        N/A     28  12  50 SW9       30.33F WCI  20
LEXINGTON        N/A     27  11  51 SW15      30.30S WCI  15
FRANKFORT        N/A     28  12  51 SW12      30.29F WCI  18
LOUISVILLE       N/A     32  13  45 SW14G22   30.31F WCI  22
LEBANON*         N/A     27  14  59 S10       30.34R WCI  17
GLASGOW*         N/A     31  13  47 SW6       30.37F WCI  25
BOWLING GREEN    N/A     30  14  51 SW6       30.39S WCI  24
$$

KYZ091>093-OHZ055-061-077-WVZ005-015-034-035-042-182300
...SOUTHERN OHIO/WEST VIRGINIA...

CITY           SKY/WX    TMP DP  RH WIND       PRES   REMARKS
COVINGTON        N/A     30  15  53 SW8       30.23R WCI  22
COLUMBUS         N/A     28  13  53 SW13      30.20F WCI  17
DAYTON           N/A     29  15  56 SW16      30.17F WCI  17
WILMINGTON       N/A     26  15  63 SW16      30.19R WCI  14
HUNTINGTON       N/A     31  11  43 SW7       30.27F WCI  24
CHARLESTON       N/A     30  11  45 SW12      30.25F WCI  20
BECKLEY          N/A     27   7  42 W10       30.18S WCI  17
BLUEFIELD        N/A     27   6  41 W10       30.17F WCI  17
LOGAN CO APT*    N/A     30  10  43 CALM      30.24S
$$

VAZ002-007-008-TNZ017-027-036-066-071-182300
...SOUTHWEST VIRGINIA/EAST TENNESSEE...

CITY           SKY/WX    TMP DP  RH WIND       PRES   REMARKS
WISE*            N/A     28  14  54 SW7       30.23F WCI  21
JONESVILLE*      N/A     32  14  47 SW6       30.35F WCI  26
ABINGDON*        N/A     28  11  49 W8        30.29F WCI  19
BRISTOL          N/A     28  12  51 S5        30.33F WCI  23
MORRISTOWN*    CLEAR     30  10  43 N3        30.34S
SEVIERVILLE*   CLEAR     32   7  34 CALM      30.36F
KNOXVILLE        N/A     31  13  47 SW5       30.37S WCI  26
LAFOLLETTE*    CLEAR     32  12  43 SW6       30.39S WCI  26
OAK RIDGE        N/A     33  11  39 E3        30.38F
CROSSVILLE       N/A     32   6  33 W5        30.32F WCI  27
NASHVILLE        N/A     35  13  40 SW9       30.40F WCI  28
$$

...KEY TO REMARKS...
VSB - VISIBILITY IN MILES
WCI - WIND CHILL INDEX
HX  - HEAT INDEX

$$



USA.gov is the U.S. government's official web portal to all federal, state and local government web resources and services.